INMARSAT 4-F1

Last updated on Thu Nov 21 2024 00:02:40 GMT+0000 (Coordinated Universal Time)

1 28628U 05009A 24325.58586869 .00000034 00000+0 00000+0 0 9996 2 28628 4.4492 41.5780 0003900 211.6662 195.8373 1.00271062 71926
UTC large
Height (km)
Speed (km/s)
/
Latitude / Longitude
Inclination (degrees)
Orbital Period (minutes)
Azimuth
Elevation
Range (km)
Doppler Factor

Next 0 passes for location: London (51.5072 / 0.1276)

Sorry there are no passes over London.